776  
FPUS82 KCHS 200127  
OPUCHS  
 
TEST   
..KCHS/KSAV GATEWAY OBSERVATIONS
 
TEST  
NATIONAL WEATHER SERVICE CHARLESTON SC  
800 PM EST THU JAN 19 2017  
 
NOTE: "FAIR" INDICATES FEW OR NO CLOUDS BELOW 12,000 FEET WITH NO  
SIGNIFICANT WEATHER AND/OR OBSTRUCTIONS TO VISIBILITY.  
 
SCZ050-WAZ558-NCZ071-TXZ119-213-PAZ071-DCZ001-FLZ074-172-MI076-  
NYZ176-178-MAZ016-IL014-TNZ027-NJZ106-GAZ044-MD014-200200-   
..GATEWAY OBSERVATIONS FOR CHARLESTON INTERNATIONAL
 
 
 
CITY SKY/WX TMP DP RH WIND PRES REMARKS  
CHAS AIRPORT CLEAR 59 52 77 E9 29.99F  
SEATTLE CLOUDY 47 41 80 S10 29.50S  
CHARLOTTE PTCLDY 59 38 45 S6 29.98F  
DALLAS DFW PTCLDY 60 53 77 S15 29.61R  
DALLAS LOVE PTCLDY 59 52 77 S14 29.64R  
PHILLADELPHIA CLOUDY 41 33 73 NE6 30.03F  
WASH NATIONAL PTCLDY 44 39 82 S6 30.04R  
BALTIMORE CLOUDY 42 36 79 S6 30.03R  
MIAMI PTCLDY 74 64 71 S5 30.02S  
DETROIT CLOUDY 36 33 89 E5 29.97R FOG WCI 32  
NEWARK MOCLDY 43 32 65 W7 30.05R  
LAGUARDIA CLOUDY 44 32 62 NW9 30.04S  
J F K MOCLDY 45 30 55 NW10 30.05S  
BOSTON LOGAN CLOUDY 42 32 67 N12G18 30.01S  
FT. LAUDERDALE PTCLDY 74 63 68 S5 30.01S  
CHICAGO O'HARE LGT RAIN 39 37 92 SE9 29.83S FOG WCI 33  
CHICAGO MIDWAY LGT RAIN 38 36 92 SE7 29.84S FOG WCI 33  
HOUSTON BUSH CLOUDY 63 59 87 W3 29.77R  
HOUSTON HOBBY CLOUDY 66 60 81 SW9 29.77S  
NASHVILLE LGT RAIN 60 58 92 SE9 29.73F FOG  
ATLANTA CLOUDY 66 51 58 E12 29.90R  
 

 
 
GAZ044-118-TXZ119-213-NCZ071-DCZ001-MDZ014-506-PAZ021-071-NJZ106-  
NYZ176-178-MAZ106-OHZ011-021-055-MIZ076-KYZ091-ILZ014-INZ047-  
MNZ060-200200-   
..GATEWAY OBSERVATIONS FOR SAVANNAH INTERNATIONAL
 
 
 
CITY SKY/WX TMP DP RH WIND PRES REMARKS  
SAVANNAH ARPT PTCLDY 59 55 87 SE9 29.97F  
ATLANTA CLOUDY 66 51 58 E12 29.90R  
CHARLOTTE PTCLDY 59 38 45 S6 29.98F  
DALLAS DFW PTCLDY 60 53 77 S15 29.61R  
HOUSTON BUSH CLOUDY 63 59 87 W3 29.77R  
WASH NATIONAL PTCLDY 44 39 82 S6 30.04R  
WASH DULLES CLOUDY 36 33 89 S3 30.03S  
BALTIMORE CLOUDY 42 36 79 S6 30.03R  
PHILADELPHIA CLOUDY 41 33 73 NE6 30.03F  
NEWARK MOCLDY 43 32 65 W7 30.05R  
LAGUARDIA CLOUDY 44 32 62 NW9 30.04S  
J F K MOCLDY 45 30 55 NW10 30.05S  
BOSTON CLOUDY 42 32 67 N12G18 30.01S  
PITTSBURG CLOUDY 36 33 89 CALM 29.97F  
AKRON CLOUDY 37 32 82 SE7 29.95F WCI 32  
CLEVELAND CLOUDY 39 33 79 S8 29.99F WCI 33  
CINCINNATI LGT RAIN 47 43 86 E8 29.83F  
COLUMBUS N/A 40 38 90 E6 29.91F WCI 36  
DETROIT CLOUDY 36 33 89 E5 29.97R FOG WCI 32  
CHICAGO O'HARE LGT RAIN 39 37 92 SE9 29.83S FOG WCI 33  
MINNEAPOLIS CLOUDY 36 31 82 SE7 29.74F WCI 30  
INDIANAPOLIS RAIN 44 41 89 E13 29.80F FOG  
 

 
 
 
CLICK HERE TO GO TO PREVIOUS BULLETINS.

The Nexlab SC Page
The Nexlab GA Page Main Text Page